sat.trackr.live / text

‹ back to catalog

JILIN-01 KUANFU 02B 5

NORAD 61193 · 2024-169E

PAYLOAD ACTIVE UNKNOWN

§ Identity

Operator
Country
PRC
Launch date
2024-09-20
Launch site
TAISC
Launch vehicle
Mass (kg)
RCS (m²)

External: N2YO · Heavens-Above · Gunter

§ Orbital elements

Epoch: 2026-05-25T04:21:08.576064Z

Period
95.44 min
Inclination
97.5568°
Eccentricity
0.0013404
Mean motion
15.08726294 rev/d
Perigee alt
530.8 km
Apogee alt
549.4 km
Semi-major
6,918.2 km
B*
2.2332e-4
RAAN
235.1920°
Arg perigee
16.1340°
Mean anomaly
344.0312°
Rev number
9,236

§ Raw data

JILIN-01 KUANFU 02B 51 61193U 24169E   26145.18134926  .00003447  00000+0  22332-3 0  99962 61193  97.5568 235.1920 0013404  16.1340 344.0312 15.08726294 92362

JSON: /api/v1/satellites/61193 · /tle

For live sub-satellite position, see the globe view (requires WebGL).

§ Visibility from observer

Set your observer location to see the next 7 days of passes ≥ 10°. The values pass through the URL so the page stays shareable.

No JS? Fill the form by hand. The geolocation button needs JavaScript.